Tracking 19638 objects as of 19-May-2019
HD Live streaming from Space Station
objects crossing your sky now

TIROS 2 DEB *

Track TIROS 2 DEB * now!
10-day predictions


NORAD ID: 5922
Int'l Code: 1960-016E
Perigee: 977.5 km
Apogee: 1,037.9 km
Inclination: 47.0 °
Period: 105.1 minutes
Semi major axis: 7378 km
RCS: 0.0192 m2 (small)
Launch date: November 23, 1960
Source: United States (US)
Launch site: AIR FORCE EASTERN TEST RANGE (AFETR)

Note: This is SATELLITE DEBRIS
aabbcc
Your satellite tracking list
Your tracking list is empty




NASA's NSSDC Master Catalog

Two Line Element Set (TLE):
1  5922U 60016E   19134.61740861 -.00000109  00000-0  23565-4 0  9998
2  5922  47.0314 283.8414 0040962 196.3806 186.0115 13.69727866396604
Source of the keplerian elements: AFSPC